GW1728 Weather Reports


Display with metric or nautical units.
time (UTC)temp
F
wind
direction
speed
MPH
gust
MPH
rain 1hr
in
rain 24hr
in
rain mn
in
humidity
%
barometer
mb
20260906233349 63 282 1.0 1.0 0.00 0.01 0.01 79 1016.7
20260906232843 64 353 2.0 2.0 0.00 0.01 0.01 77 1016.7
20260906232338 64 269 1.0 2.0 0.00 0.01 0.01 77 1016.8
20260906231832 64 289 1.0 1.0 0.00 0.01 0.01 77 1016.7
20260906231328 64 284 0.0 0.0 0.00 0.01 0.01 79 1016.9
20260906230827 64 316 3.0 5.0 0.00 0.01 0.01 78 1016.9
20260906230323 64 263 0.0 0.0 0.00 0.01 0.01 79 1017.1
20260906225820 64 280 0.0 1.0 0.00 0.01 0.01 80 1017.2
20260906225316 63 295 2.0 2.0 0.00 0.01 0.01 80 1017.2
20260906224812 63 349 4.0 6.0 0.00 0.01 0.01 80 1017.1
20260906224308 63 337 2.0 3.0 0.00 0.01 0.01 81 1017.1
20260906223804 64 313 1.0 2.0 0.00 0.01 0.01 80 1017.1
20260906223300 64 335 0.0 1.0 0.00 0.01 0.01 79 1017.3
20260906222758 64 222 0.0 0.0 0.00 0.01 0.01 78 1017.4
20260906222257 64 160 1.0 1.0 0.00 0.01 0.01 78 1017.5
20260906221755 64 243 0.0 0.0 0.00 0.01 0.01 80 1017.4
20260906221249 64 254 2.0 3.0 0.00 0.01 0.01 78 1017.5
20260906220745 64 224 0.0 0.0 0.00 0.01 0.01 81 1017.5
20260906220240 64 282 2.0 2.0 0.00 0.01 0.01 80 1017.5
20260906215739 64 267 1.0 1.0 0.00 0.01 0.01 80 1017.5
20260906215233 64 233 3.0 3.0 0.00 0.01 0.01 79 1017.5
20260906214731 64 220 1.0 2.0 0.00 0.01 0.01 79 1017.5
20260906214226 64 193 1.0 1.0 0.00 0.01 0.01 80 1017.8
20260906213720 63 216 1.0 1.0 0.00 0.01 0.01 82 1017.4
20260906213220 63 256 0.0 1.0 0.00 0.01 0.01 81 1017.4
20260906212716 63 237 2.0 2.0 0.00 0.01 0.01 80 1017.4
20260906212213 63 224 0.0 0.0 0.00 0.01 0.01 82 1017.5
20260906211707 63 231 0.0 0.0 0.00 0.01 0.01 81 1017.5
20260906211203 63 273 1.0 1.0 0.00 0.01 0.01 81 1017.7
20260906210658 63 251 0.0 1.0 0.00 0.01 0.01 82 1017.5
20260906210157 63 238 0.0 0.0 0.00 0.01 0.01 81 1017.7
20260906205652 63 282 1.0 1.0 0.00 0.01 0.01 80 1017.5
20260906205148 63 272 1.0 1.0 0.00 0.01 0.01 79 1017.5
20260906204643 63 259 0.0 0.0 0.00 0.01 0.01 80 1017.5
20260906204138 63 12 3.0 5.0 0.00 0.01 0.01 79 1017.5
20260906203637 63 260 0.0 0.0 0.00 0.01 0.01 80 1017.6
20260906203132 63 265 0.0 1.0 0.00 0.01 0.01 79 1017.5
20260906202629 63 292 0.0 0.0 0.00 0.01 0.01 80 1017.5
20260906202128 62 240 0.0 0.0 0.00 0.01 0.01 80 1017.5
20260906201624 63 275 3.0 3.0 0.00 0.01 0.01 80 1017.6
20260906201122 62 19 1.0 1.0 0.00 0.01 0.01 79 1017.6
20260906200619 62 56 2.0 2.0 0.00 0.01 0.01 79 1017.7
20260906200115 63 66 2.0 2.0 0.00 0.01 0.01 78 1017.7
20260906195610 62 143 1.0 2.0 0.00 0.01 0.01 78 1017.7
20260906195106 62 133 1.0 2.0 0.00 0.01 0.01 78 1017.8
20260906194602 62 102 3.0 3.0 0.00 0.01 0.01 79 1017.8
20260906194057 62 127 1.0 2.0 0.00 0.01 0.01 79 1017.7
20260906193557 62 82 3.0 3.0 0.00 0.01 0.01 77 1017.7
20260906193052 62 117 4.0 5.0 0.00 0.01 0.01 79 1017.9
20260906192548 62 88 2.0 2.0 0.00 0.01 0.01 78 1017.8
20260906192047 62 103 2.0 2.0 0.00 0.01 0.01 79 1018.0
20260906191542 62 75 3.0 3.0 0.00 0.01 0.01 79 1018.2
20260906191041 62 67 2.0 3.0 0.00 0.01 0.01 80 1018.2
20260906190540 61 77 4.0 6.0 0.00 0.01 0.01 80 1018.3
20260906190036 61 31 3.0 3.0 0.00 0.01 0.01 79 1018.4
20260906185534 61 69 4.0 5.0 0.00 0.01 0.01 80 1018.4
20260906185034 62 49 4.0 5.0 0.00 0.01 0.01 81 1018.4
20260906184529 62 96 4.0 5.0 0.00 0.01 0.01 81 1018.5
20260906184024 62 52 5.0 7.0 0.00 0.01 0.01 82 1018.4
20260906183521 61 90 5.0 7.0 0.00 0.01 0.01 81 1018.3
20260906183016 61 85 8.0 9.0 0.00 0.01 0.01 82 1018.0
20260906182511 61 69 5.0 7.0 0.00 0.01 0.01 84 1018.3
20260906182007 61 83 5.0 6.0 0.00 0.01 0.01 84 1018.3
20260906181502 60 52 9.0 10.0 0.00 0.01 0.01 85 1018.2
20260906180958 60 124 8.0 10.0 0.00 0.01 0.01 87 1018.4
20260906180452 60 59 9.0 13.0 0.00 0.01 0.01 88 1018.4
20260906175951 60 57 10.0 11.0 0.00 0.01 0.01 87 1018.5
20260906175445 60 70 4.0 6.0 0.00 0.01 0.01 88 1018.6
20260906174943 59 19 6.0 8.0 0.00 0.01 0.01 88 1018.6
20260906174437 58 45 5.0 6.0 0.00 0.01 0.01 88 1018.9
20260906173933 58 16 3.0 5.0 0.00 0.01 0.01 88 1019.0
20260906173428 58 1 5.0 6.0 0.00 0.01 0.01 88 1019.1
20260906172927 58 30 5.0 6.0 0.00 0.01 0.01 89 1018.9
20260906172424 57 355 4.0 6.0 0.00 0.01 0.01 89 1018.8
20260906171919 57 17 8.0 10.0 0.00 0.01 0.01 89 1018.9
20260906171413 57 28 11.0 14.0 0.00 0.01 0.01 89 1018.6
20260906170909 57 18 11.0 15.0 0.00 0.01 0.01 89 1018.8
20260906170405 56 26 9.0 13.0 0.00 0.01 0.01 90 1018.5
20260906165901 55 25 9.0 11.0 0.00 0.01 0.01 91 1019.0
20260906165401 55 99 0.0 1.0 0.00 0.01 0.01 92 1019.8
20260906164856 55 263 0.0 1.0 0.00 0.01 0.01 92 1019.8
20260906164354 55 152 0.0 1.0 0.00 0.01 0.01 92 1020.0
20260906163851 55 259 0.0 1.0 0.00 0.01 0.01 92 1020.2
20260906163347 55 279 0.0 1.0 0.00 0.01 0.01 93 1020.1
20260906162845 55 249 0.0 0.0 0.00 0.01 0.01 93 1020.1
20260906162343 55 282 2.0 3.0 0.00 0.01 0.01 93 1020.0
20260906161839 55 330 2.0 3.0 0.00 0.01 0.01 93 1020.1
20260906161338 55 313 1.0 2.0 0.00 0.01 0.01 93 1020.1
20260906160837 55 95 1.0 1.0 0.00 0.01 0.01 93 1020.2
20260906160331 55 302 2.0 2.0 0.00 0.01 0.01 92 1020.0
20260906155829 54 266 0.0 1.0 0.00 0.01 0.01 92 1020.1
20260906155323 54 261 0.0 0.0 0.00 0.01 0.01 92 1020.1
20260906154820 54 158 0.0 0.0 0.00 0.01 0.01 92 1020.1
20260906154314 54 233 0.0 0.0 0.00 0.01 0.01 92 1020.2
20260906153812 54 218 1.0 2.0 0.00 0.01 0.01 92 1020.4
20260906153307 54 334 1.0 1.0 0.00 0.01 0.01 92 1020.3
20260906152802 54 308 0.0 0.0 0.00 0.01 0.01 92 1020.4
20260906152257 54 336 0.0 1.0 0.00 0.01 0.01 92 1020.4
20260906151756 54 317 1.0 1.0 0.00 0.01 0.01 92 1020.7
20260906151252 54 359 1.0 3.0 0.07 0.01 0.01 92 1020.6
20260906150747 54 353 5.0 8.0 0.07 0.01 0.01 91 1020.7
20260906150243 54 302 2.0 3.0 0.00 0.00 0.00 91 1020.3
20260906145742 54 160 1.0 1.0 0.00 0.00 0.00 91 1020.6
20260906145240 54 307 0.0 1.0 0.00 0.00 0.00 91 1020.7
20260906144736 54 283 1.0 2.0 0.00 0.00 0.00 91 1020.9
20260906144230 54 15 1.0 3.0 0.00 0.00 0.00 91 1020.8
20260906143730 54 349 1.0 1.0 0.00 0.00 0.00 91 1020.8
20260906143227 54 282 4.0 5.0 0.00 0.00 0.00 92 1020.6
20260906142726 54 18 2.0 2.0 0.00 0.00 0.00 92 1020.8
20260906142222 54 328 3.0 6.0 0.00 0.00 0.00 91 1020.7
20260906141721 55 126 1.0 2.0 0.00 0.00 0.00 91 1020.9
20260906141216 55 172 1.0 2.0 0.00 0.00 0.00 91 1020.6
20260906140715 55 337 2.0 2.0 0.00 0.00 0.00 90 1020.7
20260906140210 56 117 2.0 2.0 0.00 0.00 0.00 90 1020.7
20260906135707 57 45 2.0 2.0 0.00 0.00 0.00 89 1020.8
20260906135203 57 210 0.0 1.0 0.00 0.00 0.00 89 1020.6
20260906134658 57 261 0.0 0.0 0.00 0.00 0.00 88 1020.6
20260906134153 57 246 0.0 0.0 0.00 0.00 0.00 87 1020.4
20260906133649 57 243 0.0 0.0 0.00 0.00 0.00 87 1020.3
20260906133144 57 244 0.0 0.0 0.00 0.00 0.00 87 1020.4
20260906132639 57 294 1.0 1.0 0.00 0.00 0.00 86 1020.1
20260906132135 57 252 0.0 0.0 0.00 0.00 0.00 86 1020.2
20260906131630 57 246 0.0 0.0 0.00 0.00 0.00 86 1020.2
20260906131125 57 243 0.0 1.0 0.00 0.00 0.00 86 1020.1
20260906130620 57 187 0.0 0.0 0.00 0.00 0.00 86 1020.0
20260906130115 57 315 3.0 3.0 0.00 0.00 0.00 86 1020.1
20260906125607 57 282 0.0 0.0 0.00 0.00 0.00 86 1020.1
20260906125106 57 342 0.0 0.0 0.00 0.00 0.00 87 1020.2
20260906124602 57 278 0.0 1.0 0.00 0.00 0.00 87 1020.2
20260906124057 57 284 1.0 2.0 0.00 0.00 0.00 87 1020.4
20260906123556 57 320 1.0 1.0 0.00 0.00 0.00 87 1020.4
20260906123051 57 19 2.0 2.0 0.00 0.00 0.00 87 1020.4
20260906122550 57 278 1.0 1.0 0.00 0.00 0.00 86 1020.6
20260906122047 58 322 2.0 3.0 0.00 0.00 0.00 86 1020.6
20260906121542 58 167 1.0 2.0 0.00 0.00 0.00 85 1020.2
20260906121039 59 350 5.0 8.0 0.00 0.00 0.00 85 1020.1
20260906120533 59 335 7.0 9.0 0.00 0.00 0.00 84 1020.1
20260906120031 59 19 8.0 10.0 0.00 0.00 0.00 83 1019.9
20260906115525 59 46 7.0 8.0 0.00 0.00 0.00 84 1019.6
20260906115020 59 30 11.0 14.0 0.00 0.00 0.00 83 1019.8
20260906114514 59 49 10.0 14.0 0.00 0.00 0.00 84 1019.7
20260906114010 59 17 5.0 6.0 0.00 0.00 0.00 83 1019.9
20260906113509 59 22 8.0 10.0 0.00 0.00 0.00 84 1019.9
20260906113004 59 65 8.0 10.0 0.00 0.00 0.00 84 1019.8
20260906112458 59 28 7.0 9.0 0.00 0.00 0.00 83 1019.9
20260906111955 59 21 9.0 11.0 0.00 0.00 0.00 83 1020.1
20260906111449 59 32 7.0 9.0 0.00 0.00 0.00 83 1020.1
20260906110944 59 8 9.0 13.0 0.00 0.00 0.00 82 1020.1
20260906110439 59 16 6.0 7.0 0.00 0.00 0.00 82 1020.1
20260906105938 59 25 7.0 9.0 0.00 0.00 0.00 82 1020.2
20260906105434 59 320 3.0 5.0 0.00 0.00 0.00 83 1020.6
20260906104930 59 341 2.0 2.0 0.00 0.00 0.00 84 1020.3
20260906104428 59 328 1.0 2.0 0.00 0.00 0.00 83 1020.4
20260906103928 59 33 4.0 6.0 0.00 0.00 0.00 82 1020.6
20260906103426 59 50 9.0 14.0 0.00 0.00 0.00 81 1020.3
20260906102921 58 33 8.0 9.0 0.00 0.00 0.00 84 1020.4
20260906102421 58 1 3.0 3.0 0.00 0.00 0.00 86 1020.4
20260906101916 58 356 3.0 3.0 0.00 0.00 0.00 86 1020.6
20260906101411 58 20 5.0 6.0 0.00 0.00 0.00 86 1020.6
20260906100907 58 325 4.0 6.0 0.00 0.00 0.00 86 1020.6
20260906100406 58 10 7.0 8.0 0.00 0.00 0.00 85 1020.3
20260906095900 58 2 6.0 8.0 0.00 0.00 0.00 85 1020.3
20260906095356 58 10 3.0 3.0 0.00 0.00 0.00 85 1020.2
20260906094850 58 38 3.0 5.0 0.00 0.00 0.00 85 1020.3
20260906094345 58 318 3.0 3.0 0.00 0.00 0.00 85 1020.4
20260906093841 58 334 4.0 6.0 0.00 0.00 0.00 85 1020.6
20260906093337 58 8 3.0 5.0 0.00 0.00 0.00 86 1020.6
20260906092832 57 19 5.0 7.0 0.00 0.00 0.00 86 1020.2
20260906092331 57 18 3.0 6.0 0.00 0.00 0.00 87 1020.1
20260906091827 57 350 5.0 8.0 0.00 0.00 0.00 87 1020.1
20260906091323 57 19 5.0 6.0 0.00 0.00 0.00 87 1020.1
20260906090820 57 25 6.0 8.0 0.00 0.00 0.00 86 1020.2
20260906090318 57 4 9.0 10.0 0.00 0.00 0.00 87 1020.3
20260906085818 57 1 7.0 8.0 0.00 0.00 0.00 87 1020.3
20260906085311 57 348 5.0 6.0 0.00 0.00 0.00 87 1020.3
20260906084807 57 16 6.0 9.0 0.00 0.00 0.00 86 1020.3
20260906084306 57 355 6.0 7.0 0.00 0.00 0.00 87 1020.2
20260906083801 57 358 7.0 10.0 0.00 0.00 0.00 88 1020.6
20260906083257 57 337 3.0 5.0 0.00 0.00 0.00 88 1020.8
20260906082751 57 311 2.0 3.0 0.00 0.00 0.00 87 1020.8
20260906082246 57 32 6.0 10.0 0.00 0.00 0.00 86 1021.0
20260906081742 57 288 1.0 1.0 0.00 0.00 0.00 88 1021.3
20260906081237 57 32 2.0 2.0 0.00 0.00 0.00 89 1021.3
20260906080734 57 236 1.0 1.0 0.00 0.00 0.00 89 1021.5
20260906080230 57 265 0.0 0.0 0.00 0.00 0.00 89 1021.4
20260906075723 57 235 1.0 1.0 0.00 0.00 0.00 89 1021.5
20260906075218 57 304 1.0 2.0 0.00 0.00 0.00 89 1021.5
20260906074713 57 284 0.0 1.0 0.00 0.00 0.00 89 1021.5
20260906074212 57 295 1.0 1.0 0.00 0.00 0.00 88 1021.8
20260906073707 57 194 2.0 2.0 0.00 0.00 0.00 88 1021.7
20260906073203 57 296 1.0 2.0 0.00 0.00 0.00 87 1021.5
20260906072658 57 185 0.0 0.0 0.00 0.00 0.00 87 1021.5
20260906072154 57 217 1.0 1.0 0.00 0.00 0.00 86 1021.5
20260906071650 57 288 2.0 3.0 0.00 0.00 0.00 85 1021.4
20260906071149 57 341 3.0 5.0 0.00 0.00 0.00 85 1021.3
20260906070646 58 27 4.0 5.0 0.00 0.00 0.00 85 1021.7
20260906070141 57 355 3.0 6.0 0.00 0.00 0.00 84 1021.4
20260906065641 57 32 3.0 3.0 0.00 0.00 0.00 85 1021.5
20260906065136 57 3 3.0 5.0 0.00 0.00 0.00 85 1021.7
20260906064632 57 264 0.0 0.0 0.00 0.00 0.00 85 1021.7
20260906064127 57 9 2.0 3.0 0.00 0.00 0.00 85 1021.5
20260906063622 57 343 1.0 2.0 0.00 0.00 0.00 85 1021.8
20260906063118 57 341 2.0 2.0 0.00 0.00 0.00 85 1022.1
20260906062613 57 292 1.0 2.0 0.00 0.00 0.00 85 1022.0
20260906062112 57 267 0.0 1.0 0.00 0.00 0.00 86 1022.0
20260906061609 57 265 0.0 1.0 0.00 0.00 0.00 86 1022.0
20260906061108 58 11 7.0 9.0 0.00 0.00 0.00 85 1022.1
20260906060605 57 0 1.0 2.0 0.00 0.00 0.00 84 1021.8
20260906055557 58 8 7.0 11.0 0.00 0.31 0.31 82 1021.8
20260906055053 57 344 2.0 3.0 0.00 0.31 0.31 85 1021.8
20260906054553 57 261 2.0 3.0 0.00 0.31 0.31 87 1022.0
20260906054048 57 303 1.0 2.0 0.00 0.31 0.31 88 1022.2
20260906053544 57 347 2.0 5.0 0.00 0.31 0.31 89 1022.4
20260906053039 57 270 2.0 2.0 0.00 0.31 0.31 89 1022.4
20260906052535 56 294 0.0 1.0 0.00 0.31 0.31 89 1022.1
20260906052032 56 337 2.0 3.0 0.00 0.31 0.31 89 1021.8
20260906051527 56 247 0.0 0.0 0.00 0.31 0.31 89 1021.5
20260906051023 56 284 0.0 1.0 0.00 0.31 0.31 90 1021.4
20260906050518 56 325 2.0 3.0 0.00 0.31 0.31 91 1021.2
20260906050012 56 283 0.0 0.0 0.00 0.31 0.31 90 1021.4
20260906045510 56 3 1.0 2.0 0.00 0.31 0.31 90 1021.5
20260906045007 56 280 0.0 0.0 0.00 0.31 0.31 90 1021.3
20260906044502 56 334 2.0 2.0 0.00 0.31 0.31 91 1021.4
20260906043957 56 257 0.0 1.0 0.00 0.31 0.31 91 1021.4
20260906043453 57 264 0.0 0.0 0.05 0.31 0.31 90 1021.7
20260906042949 57 255 0.0 0.0 0.05 0.31 0.31 89 1021.7
20260906042448 57 267 0.0 0.0 0.00 0.30 0.30 89 1021.7
20260906041948 57 305 0.0 1.0 0.00 0.30 0.30 88 1021.2
20260906041444 57 296 0.0 0.0 0.00 0.30 0.30 88 1021.5
20260906040943 57 280 1.0 1.0 0.00 0.30 0.30 87 1021.4
20260906040438 57 348 5.0 7.0 0.00 0.30 0.30 87 1020.7
20260906035934 57 25 5.0 7.0 0.00 0.30 0.30 88 1020.6
20260906035429 57 14 6.0 8.0 0.00 0.30 0.30 88 1020.6
20260906034924 57 2 5.0 7.0 0.00 0.30 0.30 89 1020.3
20260906034419 57 0 4.0 5.0 0.00 0.30 0.30 88 1020.1
20260906033915 57 13 6.0 7.0 0.00 0.30 0.30 88 1020.4
20260906033415 57 2 7.0 10.0 0.00 0.30 0.30 89 1020.3
20260906032910 57 13 6.0 7.0 0.00 0.30 0.30 89 1020.6
20260906032407 57 22 6.0 7.0 0.00 0.30 0.30 89 1020.4
20260906031901 58 7 3.0 3.0 0.00 0.30 0.30 89 1020.6
20260906031356 58 12 6.0 8.0 0.00 0.30 0.30 88 1020.9
20260906030851 58 19 4.0 5.0 0.07 0.30 0.30 89 1020.8
20260906030346 58 5 3.0 3.0 0.61 0.30 0.30 87 1020.9
20260906025841 59 352 2.0 2.0 1.18 0.29 0.29 84 1020.9
20260906025335 62 22 7.0 9.0 0.64 0.20 0.20 77 1020.7
20260906024834 63 245 1.0 1.0 0.00 0.09 0.09 69 1022.0
20260906024333 62 231 3.0 5.0 0.00 0.09 0.09 70 1021.8
20260906023829 62 265 1.0 1.0 0.00 0.09 0.09 69 1020.4
20260906023325 62 353 2.0 3.0 0.00 0.09 0.09 68 1019.6
20260906022820 62 0 5.0 6.0 0.00 0.09 0.09 68 1019.1
20260906022315 62 357 5.0 6.0 0.00 0.09 0.09 68 1018.8
20260906021811 63 359 4.0 5.0 0.00 0.09 0.09 68 1019.1
20260906021310 62 12 6.0 7.0 0.00 0.09 0.09 68 1018.9
20260906020804 62 351 5.0 7.0 0.00 0.09 0.09 69 1019.0
20260906020259 62 11 3.0 3.0 0.00 0.09 0.09 69 1019.1
20260906015759 62 7 6.0 7.0 0.00 0.09 0.09 68 1019.1
20260906015257 63 9 5.0 7.0 0.00 0.09 0.09 68 1019.2
20260906014752 63 8 4.0 5.0 0.00 0.09 0.09 67 1019.1
20260906014248 64 13 5.0 6.0 0.00 0.09 0.09 66 1019.2
20260906013743 64 12 4.0 5.0 0.00 0.09 0.09 64 1019.1
20260906013243 64 9 7.0 9.0 0.00 0.09 0.09 64 1018.9
20260906012739 64 14 7.0 9.0 0.00 0.09 0.09 64 1019.4
20260906012234 64 4 3.0 3.0 0.00 0.09 0.09 63 1019.2
20260906011729 65 5 5.0 6.0 0.00 0.09 0.09 62 1019.5
20260906011228 65 21 4.0 5.0 0.00 0.09 0.09 61 1019.2
20260906010724 66 358 6.0 7.0 0.00 0.09 0.09 61 1019.1
20260906010221 66 348 4.0 5.0 0.00 0.09 0.09 60 1019.4
20260906005721 67 9 5.0 6.0 0.00 0.09 0.09 59 1019.1
20260906005214 67 350 8.0 9.0 0.00 0.09 0.09 58 1019.1
20260906004713 67 2 7.0 8.0 0.00 0.09 0.09 58 1019.4
20260906004209 67 15 5.0 5.0 0.00 0.09 0.09 57 1019.2
20260906003704 67 19 10.0 11.0 0.00 0.09 0.09 57 1019.1
20260906003200 67 16 5.0 7.0 0.00 0.09 0.09 57 1019.0
20260906002659 68 11 7.0 9.0 0.00 0.09 0.09 56 1019.0
20260906002154 68 4 4.0 6.0 0.00 0.09 0.09 56 1019.4
20260906001650 69 27 1.0 3.0 0.00 0.09 0.09 56 1019.2
20260906001149 70 348 1.0 2.0 0.00 0.09 0.09 54 1019.4
20260906000645 71 8 3.0 5.0 0.00 0.09 0.09 52 1019.5
20260906000140 73 274 1.0 2.0 0.00 0.09 0.09 52 1019.4
20260905235639 72 15 8.0 11.0 0.00 0.09 0.09 51 1019.4
20260905235135 71 15 8.0 9.0 0.00 0.09 0.09 50 1019.4
20260905234630 71 6 6.0 8.0 0.00 0.09 0.09 51 1019.4
20260905234126 72 20 9.0 13.0 0.00 0.09 0.09 49 1019.2